History for Miami, FL

Saturday, December 1, 2012 — View Current Conditions

Jump to Data:

Date:
Airport Code:
Recently Viewed Airport Codes: KMIA
Daily Summary
  Actual Average Record
Temperature
Mean Temperature 75°F 73°F  
Max Temperature 80°F 80°F 87°F (1902)
Min Temperature 69°F 66°F 43°F (1945)
Degree Days
Heating Degree Days 0 0  
Month to date heating degree days 0 0  
Since 1 July heating degree days 1 3  
Cooling Degree Days 10 8  
Month to date cooling degree days 10 8  
Year to date cooling degree days 4450 4380  
Growing Degree Days 24 (Base 50)    
Moisture
Dew Point 62°F    
Average Humidity 71    
Maximum Humidity 90    
Minimum Humidity 52    
Precipitation
Precipitation 0.04 in 0.08 in 1.65 in (1918)
Month to date precipitation 0.04 0.08  
Year to date precipitation 86.47 59.94  
Snow
Snow 0.00 in in in ()
Month to date snowfall 0.0  
Since 1 July snowfall 0.0  
Snow Depth 0.00 in    
Sea Level Pressure
Sea Level Pressure 30.15 in    
Wind
Wind Speed 11 mph (NE)    
Max Wind Speed 18 mph    
Max Gust Speed 25 mph    
Visibility 10 miles    
Events Rain    
T = Trace of Precipitation, MM = Missing Value Source: NWS Daily Summary

Show full METARS

(help) - Comma Delimited File

Hourly Observations

Time(EST) Temperature Dew Point Humidity Sea Level Pressure Visibility Wind Direction Wind Speed Gust Speed Precipitation Events Conditions
12:53 AM 70.0°F 66.0°F 87% 30.15 in 10.0 miles Variable 4.6 mph - N/A   Overcast
1:53 AM 71.1°F 64.9°F 81% 30.14 in 10.0 miles NE 6.9 mph - 0.00 in   Overcast
2:53 AM 71.1°F 64.9°F 81% 30.12 in 10.0 miles NE 6.9 mph - 0.00 in Rain Light Rain
3:53 AM 69.1°F 64.0°F 84% 30.13 in 10.0 miles East 10.4 mph - 0.00 in Rain Light Rain
4:53 AM 69.1°F 64.9°F 87% 30.13 in 7.0 miles East 10.4 mph 19.6 mph 0.00 in Rain Light Rain
5:53 AM 70.0°F 64.9°F 84% 30.13 in 5.0 miles ENE 11.5 mph - 0.02 in Rain Light Rain
6:53 AM 71.6°F 64.4°F 78% 30.14 in 10.0 miles NNE 4.6 mph - N/A   Mostly Cloudy
7:53 AM 71.1°F 64.9°F 81% 30.16 in 10.0 miles ENE 4.6 mph - N/A   Mostly Cloudy
8:53 AM 75.0°F 64.0°F 69% 30.17 in 10.0 miles ENE 6.9 mph - N/A   Scattered Clouds
9:53 AM 75.9°F 62.1°F 62% 30.19 in 10.0 miles NE 13.8 mph 20.7 mph N/A   Scattered Clouds
10:53 AM 77.0°F 61.0°F 58% 30.19 in 10.0 miles ENE 12.7 mph 23.0 mph N/A   Scattered Clouds
11:53 AM 79.0°F 61.0°F 54% 30.18 in 10.0 miles ENE 12.7 mph - N/A   Scattered Clouds
12:53 PM 78.8°F 60.8°F 54% 30.16 in 10.0 miles ENE 13.8 mph - N/A   Scattered Clouds
1:53 PM 78.1°F 60.1°F 54% 30.15 in 10.0 miles NE 13.8 mph - N/A   Scattered Clouds
2:53 PM 78.1°F 59.0°F 52% 30.14 in 10.0 miles ENE 15.0 mph 20.7 mph N/A   Scattered Clouds
3:53 PM 77.0°F 60.1°F 56% 30.14 in 10.0 miles ENE 11.5 mph 20.7 mph N/A   Scattered Clouds
4:53 PM 75.9°F 59.0°F 56% 30.14 in 10.0 miles NE 13.8 mph - N/A   Scattered Clouds
5:53 PM 73.9°F 59.0°F 59% 30.14 in 10.0 miles NE 10.4 mph - N/A   Scattered Clouds
6:53 PM 73.0°F 60.1°F 64% 30.15 in 10.0 miles NE 8.1 mph - N/A   Partly Cloudy
7:53 PM 73.0°F 60.1°F 64% 30.17 in 10.0 miles NE 8.1 mph - N/A   Partly Cloudy
8:53 PM 73.0°F 61.0°F 66% 30.17 in 10.0 miles NE 6.9 mph - N/A   Scattered Clouds
9:53 PM 73.9°F 63.0°F 68% 30.18 in 10.0 miles ENE 12.7 mph - N/A   Mostly Cloudy
10:53 PM 73.9°F 62.1°F 66% 30.18 in 10.0 miles ENE 6.9 mph - N/A   Scattered Clouds
11:53 PM 73.0°F 64.9°F 76% 30.17 in 10.0 miles ENE 9.2 mph 16.1 mph 0.00 in Rain Light Rain